Other Public Products
Issued by NWS Grand Forks, ND

Home | Current Version | Previous Version | Graphics & Text | Print | Product List | Glossary On
Versions: 1 2 3 4 5 6 7 8 9 10 11 12 13 14 15 16 17 18 19 20 21 22 23 24 25 26 27 28 29 30 31 32 33 34 35 36 37 38 39 40 41 42 43 44 45 46 47 48 49 50
000
FPUS83 KFGF 111231
OPUFGF
PRAIRIE TO PINES WEATHER ROUNDUP
NATIONAL WEATHER SERVICE EASTERN NORTH DAKOTA/GRAND FORKS ND
600 AM CST THU FEB 11 2016

 **SATELLITE DATA USED TO AUGMENT SKY COVER AT AUTOMATED STATIONS**
 *****  WEATHER ACROSS EASTERN NORTH DAKOTA  *****

CITY           SKY/WX    TMP DP  RH WIND       PRES   REMARKS
GRAND FORKS    CLOUDY     5  -1  76 SE5       30.28F WCI  -4
6HR MIN TEMP:   1; 6HR MAX TEMP:   5;

GRAND FORKS AF CLOUDY     5   0  78 SE5       30.27F WCI  -4
GRAND CITY NWS NOT AVBL
BUXTON           N/A      5   2  89 CALM        N/A
DEVILS LAKE    FLURRIES   5   2  87 SE3       30.19F
6HR MIN TEMP:  -3; 6HR MAX TEMP:   5; 6HR PCP: TRACE;

FARGO          CLOUDY     5  -1  76 NE3       30.28F
6HR MIN TEMP:   0; 6HR MAX TEMP:   7;

WAHPETON ARPT  CLOUDY     1  -4  78 CALM      30.29S
$$

 *****  WEATHER ACROSS CENTRAL AND WESTERN NORTH DAKOTA  *****

CITY           SKY/WX    TMP DP  RH WIND       PRES   REMARKS
JAMESTOWN      CLOUDY     7   2  80 SE5       30.19S WCI  -2
6HR MIN TEMP:   2; 6HR MAX TEMP:   7;

BISMARCK       LGT SNOW  19  13  77 SE8       30.14F WCI   9
6HR MIN TEMP:  17; 6HR MAX TEMP:  19; 6HR PCP: TRACE;

MINOT          CLOUDY    14   7  73 E6        30.13F WCI   5
6HR MIN TEMP:  13; 6HR MAX TEMP:  15;

MINOT AFB      CLOUDY    12   9  85 SE7       30.13S WCI   2
6HR MIN TEMP:  10; 6HR MAX TEMP:  12;

GARRISON         N/A     15  12  88 SE5       30.10S WCI   8
6HR MIN TEMP:  12; 6HR MAX TEMP:  15; 6HR PCP:  0.01;

WILLISTON      LGT SNOW  24  21  88 E6        30.07R FOG     WCI  17
6HR MIN TEMP:  24; 6HR MAX TEMP:  26; 6HR PCP:  0.04;

DICKINSON      LGT SNOW  25  23  92 E6        29.99F VSB 1   WCI  18
6HR MIN TEMP:  24; 6HR MAX TEMP:  25; 6HR PCP:  0.01;

HETTINGER      LGT SNOW  29  27  92 S7        30.03S FOG     WCI  22
6HR MIN TEMP:  27; 6HR MAX TEMP:  29; 6HR PCP: TRACE;

$$

 *****  OTHER OBSERVATIONS NORTHEAST NORTH DAKOTA  *****

CITY           SKY/WX    TMP DP  RH WIND       PRES   REMARKS
WALHALLA         N/A      5   3  92 S3        30.25S
LANGDON        CLOUDY     5   1  85 W6        30.18S WCI  -6
CAVALIER       CLOUDY     3   0  85 SW7       30.27S WCI  -9
GRAFTON        CLOUDY     3   1  92 S6        30.29F WCI  -8
CANDO          PTSUNNY    5   3  92 CALM      30.21S
FORT TOTTEN      N/A      5   1  83 SE3       29.95S
ROLLA          FLURRIES   7   3  85 CALM      30.16S
RUGBY          PTSUNNY    9   7  92 SE3       30.16S
 ***** THE ABOVE OBSERVATIONS ARE NON NWS ARE NOT QUALITY
        CONTROLLED AND MAY MIS-REPORT RAIN FOR SNOW...
$$

 *****  OTHER OBSERVATIONS SOUTHEAST NORTH DAKOTA *****

CITY           SKY/WX    TMP DP  RH WIND       PRES   REMARKS
COOPERSTOWN    NOT AVBL
VALLEY CITY    CLOUDY     1   0  92 CALM      30.23F
OAKES            N/A      9   3  78 SE5       30.23S WCI   0
GWINNER        CLOUDY     9   5  85 CALM      30.25R
SHEYENNE NWR     N/A      0  -5  78 CALM      29.95S
BUFFALO          N/A      3  -1  81 CALM        N/A
WYNDMERE         N/A      0  -2  92 W3          N/A
 ***** THE ABOVE OBSERVATIONS ARE NON NWS ARE NOT QUALITY
       CONTROLLED AND MAY MIS-REPORT RAIN FOR SNOW...
$$

  *****  WEATHER ACROSS NORTHERN MINNESOTA  *****

CITY           SKY/WX    TMP DP  RH WIND       PRES   REMARKS
FLAG ISLAND    CLOUDY    -6 -11  77 S3        30.22S
WARROAD        CLOUDY    -9 -15  77 CALM      30.24S
ROSEAU         CLOUDY   -11 -17  77 SW3       30.25S
HALLOCK        CLOUDY    -2  -6  84 S5        30.27S WCI -12
THF RVR FALLS  CLOUDY    -6 N/A N/A CALM      30.26F
6HR MIN TEMP:  -9; 6HR MAX TEMP:  -2;

HALSTAD          N/A      3   0  85 SE2         N/A
FOSSTON        CLOUDY   -18 -24  76 CALM      30.25F
BAUDETTE       CLOUDY   -12 -18  74 S3        30.22F
6HR MIN TEMP: -21; 6HR MAX TEMP: -11;

WASKISH        CLOUDY   -15 -18  84 CALM      30.24F
CROOKSTON      CLOUDY     0  -6  78 SE3       30.30S
$$
  *****  WEATHER ACROSS CENTRAL AND WEST MINNESOTA  *****

CITY           SKY/WX    TMP DP  RH WIND       PRES   REMARKS
BEMIDJI        PTCLDY   -18 -23  80 CALM      30.24S
PARK RAPIDS    CLOUDY   -14 -21  71 CALM      30.23R
6HR MIN TEMP: -15; 6HR MAX TEMP:  -4;

WADENA         CLOUDY    -9 -13  84 CALM      30.25S
DETROIT LAKES  CLOUDY    -6  -9  84 E5        30.24S WCI -17
MOORHEAD       CLOUDY     3  -2  78 E5        30.27F WCI  -6
FERGUS FALLS   CLOUDY     3   0  85 CALM      30.30S
ELBOW LAKE     PTSUNNY    0  -3  88 S5        30.27S WCI -10
6HR MIN TEMP:   1; 6HR MAX TEMP:  10;

MORRIS MN      CLOUDY     1  -2  85 CALM      30.27S
STAPLES        CLOUDY   -11 -15  84 CALM      30.26S
WHEATON        CLOUDY     5   1  85 CALM      30.30S
$$
  *****  WEATHER ELSEWHERE ACROSS MINNESOTA  *****

CITY           SKY/WX    TMP DP  RH WIND       PRES   REMARKS
DULUTH         CLOUDY    -9 -15  75 NW6       30.20S WCI -22
6HR MIN TEMP: -10; 6HR MAX TEMP:  -5;

INTRNTL FALLS  CLOUDY   -10 -15  78 CALM      30.23F
6HR MIN TEMP: -23; 6HR MAX TEMP: -10;

ELY            CLOUDY   -18 -24  76 SW3       30.21R
CLOQUET        CLOUDY   -11 -17  77 SW5       30.24S WCI -23
BRAINERD       CLOUDY   -14 -19  79 CALM      30.27R
6HR MIN TEMP: -15; 6HR MAX TEMP:  -4;

HIBBING        PTCLDY   -23 -28  78 CALM      30.23R
6HR MIN TEMP: -27; 6HR MAX TEMP: -18;

ALEXANDRIA     CLOUDY     1  -6  72 SE3       30.25S
6HR MIN TEMP:  -1; 6HR MAX TEMP:   8;

SAINT CLOUD    CLOUDY    -3  -8  79 CALM      30.29S
6HR MIN TEMP:  -3; 6HR MAX TEMP:   6;

MINNEAPOLIS    PTCLDY     4  -6  63 NE3       30.31S
6HR MIN TEMP:   2; 6HR MAX TEMP:   9;

$$

  *****  WEATHER ACROSS SOUTH DAKOTA  *****

CITY           SKY/WX    TMP DP  RH WIND       PRES   REMARKS
SIOUX FALLS    CLOUDY    13   5  70 SE7       30.25S WCI   3
6HR MIN TEMP:  13; 6HR MAX TEMP:  14;

BROOKINGS      CLOUDY    11   7  84 SE6       30.22S WCI   1
WATERTOWN      CLOUDY    12   5  73 S6        30.18F WCI   3
6HR MIN TEMP:  11; 6HR MAX TEMP:  12;

HURON          CLOUDY    16  11  80 S7        30.23F WCI   6
6HR MIN TEMP:  15; 6HR MAX TEMP:  16;

SISSETON         N/A      8   3  80 CALM      30.25F
ABERDEEN       CLOUDY    14   9  80 CALM      30.23R
6HR MIN TEMP:  13; 6HR MAX TEMP:  15;

MITCHELL       CLOUDY    18  13  80 SE9       30.24S WCI   7
PIERRE         CLOUDY    22  19  89 SE8       30.14F WCI  12
6HR MIN TEMP:  19; 6HR MAX TEMP:  23;

MOBRIDGE       CLOUDY    20  16  84 SE8       30.11S WCI  10
RAPID CITY       N/A     27  26  96 MISG      30.01S
6HR MIN TEMP:  25; 6HR MAX TEMP:  29;

$$

  *****  SOME WEATHER IN NEARBY STATES *****

CITY           SKY/WX    TMP DP  RH WIND       PRES   REMARKS
GLASGOW MT     CLOUDY    29  25  85 E14       30.00R WCI  18
6HR MIN TEMP:  29; 6HR MAX TEMP:  31; 6HR PCP: TRACE;

GREAT FALLS MT PTCLDY    38  26  62 SW14      30.11R
6HR MIN TEMP:  34; 6HR MAX TEMP:  50;

CHEYENNE WY    PTCLDY    43  15  32 NW13G22   30.13R
6HR MIN TEMP:  35; 6HR MAX TEMP:  44;

SCOTTSBLUFF NE MOCLDY    33  24  69 N5        30.09S
6HR MIN TEMP:  29; 6HR MAX TEMP:  33;

OMAHA NE       CLOUDY    15   3  59 NE5       30.30R WCI   8
6HR MIN TEMP:  15; 6HR MAX TEMP:  19;

DES MOINES IA  PTCLDY     8  -2  63 NE7       30.31R WCI  -3
6HR MIN TEMP:   8; 6HR MAX TEMP:  16;

DAVENPORT IA   CLEAR      6   0  76 N6        30.30R WCI  -4
6HR MIN TEMP:   5; 6HR MAX TEMP:  10;

CHICAGO IL     PTCLDY     7  -3  64 N9        30.26R WCI  -7
6HR MIN TEMP:   7; 6HR MAX TEMP:  12;

EAU CLAIRE WI  PTCLDY    -7 -12  79 CALM      30.29R
6HR MIN TEMP:  -9; 6HR MAX TEMP:   4;

LA CROSSE WI   PTCLDY    -2  -7  79 CALM      30.32R
6HR MIN TEMP:  -5; 6HR MAX TEMP:   7;

$$

  *****  SOME NATIONAL WEATHER *****

CITY           SKY/WX    TMP DP  RH WIND       PRES   REMARKS
LA GUARDIA NY  PTCLDY    25   5  42 W17G28    29.86R WCI  12       C1F1C2F2C3F3C4F4C5F5C6F6C7F7C8F8C9F9CaFaCbFbCcFcCdFdCe!


USA.gov is the U.S. government's official web portal to all federal, state and local government web resources and services.